Photometre #354[Standard_N] Mount_Chacaltaya AOT

File : 20220922_354.hum

22/09/2022,11:01:01,TEMP=-4.3,BA=5.60,STAT.A=Abs.,ExtBa=12.42
22/09/2022,11:03:59,TEMP=-4.1,BA=5.60,STAT.A=Abs.,ExtBa=12.36
22/09/2022,11:06:56,TEMP=-4.0,BA=5.60,STAT.A=Abs.,ExtBa=12.33
22/09/2022,11:10:29,TEMP=-3.9,BA=5.48,STAT.A=Abs.,ExtBa=12.32
22/09/2022,11:14:55,TEMP=-4.0,BA=5.48,STAT.A=Abs.,ExtBa=12.33
22/09/2022,11:20:22,TEMP=-3.9,BA=5.60,STAT.A=Abs.,ExtBa=12.34
22/09/2022,11:27:13,TEMP=-3.7,BA=5.60,STAT.B=Abs.,ExtBa=12.35
22/09/2022,11:30:29,TEMP=-3.5,BA=5.44,STAT.A=Abs.,ExtBa=12.32
22/09/2022,11:34:08,TEMP=-3.4,BA=5.44,STAT.A=Abs.,ExtBa=12.32
22/09/2022,11:38:13,TEMP=-3.2,BA=5.44,STAT.A=Abs.,ExtBa=12.32
22/09/2022,11:42:51,TEMP=-2.9,BA=5.36,STAT.A=Abs.,ExtBa=12.31
22/09/2022,11:48:09,TEMP=-2.2,BA=5.36,STAT.C=Abs.,ExtBa=12.32
22/09/2022,12:00:00,TEMP=-0.4,BA=5.36,STAT.A=Abs.,ExtBa=12.21
22/09/2022,12:03:05,TEMP=-0.2,BA=5.40,STAT.A=Abs.,ExtBa=12.46
22/09/2022,12:09:49,TEMP=-0.1,BA=5.40,STAT.A=Abs.,ExtBa=12.64
22/09/2022,12:20:00,TEMP=0.1,BA=5.60,STAT.A=Abs.,ExtBa=13.08
22/09/2022,12:32:34,TEMP=0.7,BA=5.64,STAT.B=Abs.,ExtBa=13.52
22/09/2022,12:58:15,STAT.p
22/09/2022,13:10:59,TEMP=3.4,BA=5.68,STAT.D=Abs.,ExtBa=13.69
22/09/2022,13:26:01,TEMP=4.0,BA=5.68,STAT.F,ExtBa=13.72
22/09/2022,13:41:00,TEMP=5.1,BA=5.68,STAT.D=Abs.,ExtBa=13.63
22/09/2022,13:56:00,TEMP=4.8,BA=5.68,STAT.D=Abs.,ExtBa=13.78
22/09/2022,14:11:00,TEMP=5.1,BA=5.68,STAT.D=Abs.,ExtBa=13.85
22/09/2022,14:26:02,TEMP=5.6,BA=5.68,STAT.F,ExtBa=13.99
22/09/2022,14:41:00,TEMP=5.8,BA=5.64,STAT.D=Abs.,ExtBa=13.72
22/09/2022,14:56:00,TEMP=4.3,BA=5.64,STAT.D=Abs.,ExtBa=13.55
22/09/2022,15:11:00,TEMP=4.1,BA=5.64,STAT.D=Abs.,ExtBa=14.11
22/09/2022,15:26:02,TEMP=5.6,BA=5.64,STAT.F,ExtBa=14.01
22/09/2022,15:41:01,TEMP=5.6,BA=5.64,STAT.D=Abs.,ExtBa=14.00
22/09/2022,15:56:01,TEMP=5.2,BA=5.64,STAT.D=Abs.,ExtBa=14.22
22/09/2022,16:11:01,TEMP=5.7,BA=5.64,STAT.D=Abs.,ExtBa=14.31
22/09/2022,16:26:03,TEMP=6.1,BA=5.64,STAT.F,ExtBa=14.30
22/09/2022,16:41:01,TEMP=6.5,BA=5.64,STAT.D=Abs.,ExtBa=14.17
22/09/2022,16:56:01,TEMP=6.2,BA=5.64,STAT.D=Abs.,ExtBa=14.08
22/09/2022,17:11:01,TEMP=6.0,BA=5.64,STAT.D=Abs.,ExtBa=13.63
22/09/2022,17:26:02,TEMP=7.1,BA=5.64,STAT.F,ExtBa=13.39
22/09/2022,17:40:59,TEMP=6.3,BA=5.64,STAT.D=Abs.,ExtBa=13.21
22/09/2022,17:56:00,TEMP=7.3,BA=5.64,STAT.D=Abs.,ExtBa=13.46